Flag for Germany Weather past 2 weeks in Görlitz, Saxony, Germany

Now
63 °F

Overcast.


Feels Like: 63 °F
Forecast: 55 / 73 °F
Wind: 6 mph from South

Location: Goerlitz

Current Time: Aug 29, 2014 at 11:14:21 AM

Latest Report: Aug 29, 2014 at 10:00 AM


Visibility: 22 mi

Pressure: 30.02 "Hg

Humidity: 64%

Dew point: 50 °F

Location of GörlitzLocation

Historic Weather in Görlitz — Graph

°F

Görlitz temperature yesterday

Maximum temperature yesterday: 70 °F (at 4:00 PM)
Minimum temperature yesterday: 46 °F (at 6:00 AM)
Average temperature yesterday: 58 °F

Past Weeks' High & Low Weather Summary

 TemperatureHumidityPressure
High70 °F (Aug 28, 4:00 PM)99% (Aug 27, 5:00 AM)30.11 "Hg (Aug 27, 5:00 AM)
Low46 °F (Aug 25, 6:00 AM)37% (Aug 28, 5:00 PM)29.71 "Hg (Aug 18, 3:00 PM)
Average58 °F74%29.93 "Hg
* Reported Aug 14 10:00 AM — Aug 29 10:00 AM, Görlitz, Weather by CustomWeather, © 2014

Note: Actual official high and low records may vary slightly from our data, if they occured in-between our weather recording intervals... More about our weather records

Advertising

Görlitz weather history for previous 24 hours

 ConditionsComfort  
Time TempWeatherWind HumidityBarometerVisibility
10:00 AM
Aug 29
63 °FOvercast.6 mph64%30.02 "Hg22 mi
9:00 AM61 °FOvercast.7 mph62%30.02 "Hg22 mi
8:00 AM60 °FOvercast.6 mph63%30.02 "Hg19 mi
7:00 AM58 °FOvercast.5 mph64%30.02 "Hg17 mi
6:00 AM57 °FPassing clouds.3 mph66%30.03 "Hg14 mi
5:00 AM57 °FPassing clouds.2 mph66%30.04 "Hg28 mi
4:00 AM56 °FPassing clouds.3 mph68%30.05 "Hg31 mi
3:00 AM57 °FClear.5 mph64%30.05 "Hg25 mi
2:00 AM55 °FPassing clouds.1 mph69%30.07 "Hg28 mi
1:00 AM54 °FPassing clouds.2 mph74%30.07 "Hg22 mi
12:00 AM51 °FClear.3 mph88%30.07 "Hg12 mi
11:00 PM
Aug 28
54 °FClear.2 mph85%30.07 "Hg14 mi
10:00 PM57 °FClear.2 mph75%30.07 "Hg22 mi
9:00 PM60 °FPassing clouds.1 mph63%30.06 "Hg28 mi
8:00 PM64 °FPassing clouds.2 mph55%30.05 "Hg37 mi
7:00 PM68 °FPassing clouds.1 mph44%30.03 "Hg37 mi
6:00 PM69 °FPassing clouds.2 mph39%30.04 "Hg40 mi
5:00 PM69 °FPassing clouds.5 mph37%30.05 "Hg47 mi
4:00 PM70 °FPassing clouds.3 mph39%30.06 "Hg47 mi
3:00 PM69 °FPassing clouds.3 mph40%30.06 "Hg47 mi
2:00 PM68 °FPassing clouds.3 mph42%30.07 "Hg47 mi
1:00 PM67 °FScattered clouds.3 mph44%30.09 "Hg43 mi
12:00 PM66 °FPartly sunny.2 mph51%30.10 "Hg47 mi
11:00 AM64 °FPassing clouds.2 mph53%30.10 "Hg40 mi
Weather by CustomWeather, © 2014

See weather overviewHow to use our weather pages